This is the latest recevied weather packets stored in our database for station/object K9YK-13. If no packets are shown the sender has not sent any weather packets the latest 10 day(s).
| Time | Temp. | Humidity | Pressure | Rain* | Wind** | Luminosity | Snow |
|---|---|---|---|---|---|---|---|
| 1777674672 | 12.22° C | 58% | 0 hPa | 0 mm | - | - | - |
| 1777674386 | 13.33° C | 56% | 0 hPa | 0 mm | - | - | - |
| 1777674073 | 13.33° C | 56% | 0 hPa | 0 mm | - | - | - |
| 1777673772 | 12.78° C | 57% | 0 hPa | 0 mm | - | - | - |
| 1777673472 | 13.33° C | 61% | 0 hPa | 0 mm | - | - | - |
| 1777673172 | 12.22° C | 63% | 0 hPa | 0 mm | - | - | - |
| 1777672872 | 11.11° C | 67% | 0 hPa | 0 mm | - | - | - |
| 1777672572 | 12.78° C | 70% | 0 hPa | 0 mm | - | - | - |
| 1777672272 | 12.78° C | 59% | 0 hPa | 0 mm | - | - | - |
| 1777671972 | 12.22° C | 59% | 0 hPa | 0 mm | - | - | - |
| 1777671672 | 12.22° C | 61% | 0 hPa | 0 mm | - | - | - |
| 1777671372 | 12.22° C | 58% | 0 hPa | 0 mm | - | - | - |
| 1777671072 | 12.22° C | 57% | 0 hPa | 0 mm | - | - | - |
| 1777670782 | 12.78° C | 59% | 0 hPa | 0 mm | - | - | - |
| 1777670172 | 13.89° C | 57% | 0 hPa | 0 mm | - | - | - |
| 1777669872 | 13.33° C | 56% | 0 hPa | 0 mm | - | - | - |
| 1777669572 | 13.33° C | 58% | 0 hPa | 0 mm | - | - | - |
| 1777669272 | 13.33° C | 61% | 0 hPa | 0 mm | - | - | - |
| 1777668972 | 12.22° C | 66% | 0 hPa | 0 mm | - | - | - |
| 1777668672 | 12.22° C | 58% | 0 hPa | 0 mm | - | - | - |
| 1777668371 | 13.33° C | 58% | 0 hPa | 0 mm | - | - | - |
| 1777668072 | 13.33° C | 58% | 0 hPa | 0 mm | - | - | - |
| 1777667772 | 13.89° C | 56% | 0 hPa | 0 mm | - | - | - |
| 1777667472 | 13.89° C | 58% | 0 hPa | 0 mm | - | - | - |
| 1777667172 | 13.33° C | 57% | 0 hPa | 0 mm | - | - | - |
* Rain latest hour (hover to see other rain measurements)
** Current wind speed in m/s (hover to see current wind gust speed)